Voltar ao catálogo

NOAA 16 DEB

AtivoPO
NORAD 42340·DEBRIS·🇺🇸 United States

Lançado Sep 21, 2000 de Vandenberg Space Force Base

Loading…

Próximas Passagens (próximas 24 horas)

TLE

AtualizadoSource: Space-Track

Época: Sep 14, 2026, 07:35 UTC

1 42340U 00055QG  26257.31612305  .00007120  00000-0  18090-2 0  9996
2 42340  99.0276  69.4489 0023797 337.7502  22.2656 14.50895810544943

Acompanhe NOAA 16 DEB em tempo real com AllMySat

Download on the App Store